SWR139 VHHH-LSZH

Flight info

Callsign SWR139
Flight time N/A
Altitude 34100
Route BEKOL A461 SHL W22 TEPID W24 OSNOV G586 QP B330 MAMSI/K0928S1100 B330 ELKAL W179 IGNAK/K0928S1070 W179 WFX/K0928S1100 W179 OMBON W195 VIDEK/K0913S1130 W195 LAXAL/K0909S1100 W195 IDOPA W197 ANDIM B215 NIXUK/K0904S1160 B215 IBANO G470 AKLAS W192 FKG A368 SARIN/K0898F380 N161 BAGED/K0891F400 N161 GASBI/N0489F400 N161 LEYLA N644 ADEKI DCT BADIR DCT LAGAS DCT NOLGA UN61 TBN UM11 CRM UL746 ODERO DCT LUGEB DCT NERDI DCT INVED DCT GOTAR DCT ERKIR DCT KPT L856 NEGRA
Aircraft A359/H-SDE2E3GHIJ3J4J5LM1ORWXY/LB1D1

Departure

Time 2026-05-03 20:57
Airport Hong Kong International Airport (VHHH)

Arrival

Time N/A
Airport Zürich Airport (LSZH)
Time Latitude Longitude Altitude Speed Heading
2026-05-03 20:15 22.31461 113.92998 43 ft 0 kts 161°
2026-05-03 20:42 22.31485 113.92989 39 ft 4 kts 161°
2026-05-03 20:42 22.31510 113.92980 40 ft 2 kts 161°
2026-05-03 20:42 22.31529 113.92974 38 ft 4 kts 191°
2026-05-03 20:43 22.31546 113.92982 40 ft 4 kts 232°
2026-05-03 20:43 22.31559 113.93006 39 ft 4 kts 249°
2026-05-03 20:43 22.31563 113.93017 39 ft 5 kts 251°
2026-05-03 20:48 22.31562 113.93015 39 ft 2 kts 251°
2026-05-03 20:48 22.31544 113.92958 41 ft 13 kts 251°
2026-05-03 20:48 22.31511 113.92855 43 ft 15 kts 251°
2026-05-03 20:49 22.31502 113.92747 40 ft 15 kts 288°
2026-05-03 20:49 22.31546 113.92645 43 ft 15 kts 296°
2026-05-03 20:49 22.31592 113.92543 43 ft 15 kts 295°
2026-05-03 20:49 22.31651 113.92453 43 ft 15 kts 329°
2026-05-03 20:50 22.31735 113.92394 43 ft 14 kts 292°
2026-05-03 20:50 22.31717 113.92297 43 ft 14 kts 251°
2026-05-03 20:50 22.31684 113.92188 43 ft 17 kts 252°
2026-05-03 20:50 22.31641 113.92055 43 ft 20 kts 250°
2026-05-03 20:51 22.31590 113.91902 43 ft 22 kts 250°
2026-05-03 20:51 22.31539 113.91743 43 ft 22 kts 251°
2026-05-03 20:51 22.31488 113.91586 43 ft 22 kts 250°
2026-05-03 20:51 22.31437 113.91430 44 ft 22 kts 250°
2026-05-03 20:52 22.31386 113.91274 44 ft 22 kts 251°
2026-05-03 20:52 22.31336 113.91118 44 ft 22 kts 251°
2026-05-03 20:52 22.31285 113.90960 43 ft 22 kts 251°
2026-05-03 20:52 22.31234 113.90801 43 ft 23 kts 251°
2026-05-03 20:53 22.31183 113.90640 43 ft 23 kts 251°
2026-05-03 20:53 22.31130 113.90478 43 ft 23 kts 250°
2026-05-03 20:53 22.31078 113.90318 42 ft 23 kts 251°
2026-05-03 20:53 22.31027 113.90158 43 ft 18 kts 251°
2026-05-03 20:54 22.30992 113.90049 43 ft 16 kts 251°
2026-05-03 20:54 22.31009 113.89887 42 ft 11 kts 332°
2026-05-03 20:54 22.31080 113.89857 43 ft 10 kts 342°
2026-05-03 20:55 22.31121 113.89885 43 ft 7 kts 63°
2026-05-03 20:55 22.31124 113.89895 43 ft 0 kts 69°
2026-05-03 20:56 22.31125 113.89895 43 ft 1 kts 69°
2026-05-03 20:56 22.31144 113.89950 43 ft 20 kts 70°
2026-05-03 20:56 22.31261 113.90313 41 ft 80 kts 71°
2026-05-03 20:56 22.31506 113.91067 46 ft 131 kts 70°
2026-05-03 20:57 22.31857 113.92151 48 ft 174 kts 70°
2026-05-03 20:57 22.32227 113.93369 669 ft 167 kts 70°
2026-05-03 20:57 22.32598 113.94580 1192 ft 173 kts 68°
2026-05-03 20:57 22.33002 113.95861 1471 ft 187 kts 68°
2026-05-03 20:58 22.33499 113.97209 1761 ft 199 kts 59°
2026-05-03 20:58 22.34245 113.98483 2239 ft 199 kts 53°
2026-05-03 20:58 22.35066 113.99721 2659 ft 206 kts 52°
2026-05-03 20:58 22.35925 114.01003 3026 ft 214 kts 52°
2026-05-03 20:59 22.36800 114.02338 3388 ft 221 kts 53°
2026-05-03 20:59 22.37689 114.03720 3819 ft 227 kts 53°
2026-05-03 20:59 22.38597 114.05150 4231 ft 233 kts 54°
2026-05-03 20:59 22.39509 114.06612 4678 ft 237 kts 56°
2026-05-03 21:00 22.39977 114.07683 4915 ft 241 kts 72°
2026-05-03 21:00 22.40100 114.08882 5159 ft 247 kts 96°
2026-05-03 21:00 22.39372 114.11317 5407 ft 266 kts 116°
2026-05-03 21:00 22.38572 114.13188 5692 ft 281 kts 116°
2026-05-03 21:01 22.37751 114.15133 6131 ft 288 kts 115°
2026-05-03 21:01 22.36926 114.17126 6642 ft 292 kts 115°
2026-05-03 21:01 22.36099 114.19149 7176 ft 297 kts 115°
2026-05-03 21:01 22.35262 114.21210 7706 ft 302 kts 115°
2026-05-03 21:02 22.34417 114.23298 8276 ft 304 kts 116°
2026-05-03 21:02 22.33687 114.25435 8793 ft 312 kts 103°
2026-05-03 21:02 22.33708 114.27775 9234 ft 316 kts 72°
2026-05-03 21:02 22.34696 114.29873 9860 ft 313 kts 52°
2026-05-03 21:03 22.36011 114.31786 10275 ft 323 kts 50°
2026-05-03 21:03 22.37511 114.33659 10489 ft 336 kts 38°
2026-05-03 21:03 22.39548 114.34887 10699 ft 340 kts 11°
2026-05-03 21:03 22.41899 114.35054 10915 ft 342 kts 347°
2026-05-03 21:04 22.44270 114.34588 11202 ft 351 kts 344°
2026-05-03 21:04 22.46682 114.33986 11422 ft 360 kts 339°
2026-05-03 21:04 22.48950 114.32829 11624 ft 363 kts 321°
2026-05-03 21:04 22.50758 114.30926 11813 ft 366 kts 302°
2026-05-03 21:05 22.51881 114.28451 12076 ft 367 kts 284°
2026-05-03 21:05 22.52405 114.25785 12472 ft 369 kts 278°
2026-05-03 21:05 22.52824 114.23047 12906 ft 370 kts 278°
2026-05-03 21:05 22.53247 114.20286 13334 ft 372 kts 278°
2026-05-03 21:06 22.53734 114.17524 13721 ft 376 kts 283°
2026-05-03 21:06 22.54717 114.14891 14117 ft 382 kts 298°
2026-05-03 21:06 22.56410 114.12651 14462 ft 391 kts 315°
2026-05-03 21:06 22.58675 114.10965 14813 ft 399 kts 326°
2026-05-03 21:07 22.61155 114.09546 15155 ft 404 kts 329°
2026-05-03 21:07 22.63704 114.08259 15499 ft 408 kts 331°
2026-05-03 21:07 22.66306 114.07004 15835 ft 411 kts 331°
2026-05-03 21:07 22.68925 114.05738 16177 ft 414 kts 331°
2026-05-03 21:08 22.71557 114.04445 16518 ft 416 kts 330°
2026-05-03 21:08 22.74194 114.03123 16860 ft 418 kts 330°
2026-05-03 21:08 22.76801 114.01796 17183 ft 421 kts 329°
2026-05-03 21:08 22.79460 114.00431 17532 ft 423 kts 329°
2026-05-03 21:09 22.82126 113.99054 17911 ft 425 kts 329°
2026-05-03 21:09 22.84801 113.97670 18255 ft 427 kts 329°
2026-05-03 21:09 22.87486 113.96281 18577 ft 428 kts 329°
2026-05-03 21:09 22.90195 113.94884 18925 ft 429 kts 329°
2026-05-03 21:10 22.92887 113.93494 19253 ft 430 kts 329°
2026-05-03 21:10 22.95590 113.92088 19582 ft 431 kts 329°
2026-05-03 21:10 22.98297 113.90677 19892 ft 433 kts 329°
2026-05-03 21:10 23.01023 113.89254 20184 ft 435 kts 329°
2026-05-03 21:11 23.03750 113.87831 20495 ft 436 kts 329°
2026-05-03 21:11 23.06482 113.86392 20796 ft 437 kts 327°
2026-05-03 21:11 23.09040 113.84707 21083 ft 433 kts 319°
2026-05-03 21:11 23.11377 113.82655 21395 ft 431 kts 314°
2026-05-03 21:12 23.13607 113.80477 21691 ft 432 kts 312°
2026-05-03 21:12 23.15780 113.78236 21983 ft 433 kts 311°
2026-05-03 21:12 23.17956 113.75936 22302 ft 435 kts 310°
2026-05-03 21:12 23.20125 113.73626 22591 ft 437 kts 310°
2026-05-03 21:13 23.22303 113.71311 22895 ft 439 kts 310°
2026-05-03 21:13 23.24498 113.68989 23196 ft 441 kts 310°
2026-05-03 21:13 23.26707 113.66662 23496 ft 443 kts 311°
2026-05-03 21:13 23.28929 113.64328 23747 ft 445 kts 310°
2026-05-03 21:14 23.31159 113.61990 24017 ft 446 kts 310°
2026-05-03 21:14 23.33393 113.59633 24266 ft 446 kts 309°
2026-05-03 21:14 23.35404 113.57085 24526 ft 442 kts 301°
2026-05-03 21:14 23.37152 113.54339 24814 ft 440 kts 298°
2026-05-03 21:15 23.38777 113.51512 25103 ft 441 kts 296°
2026-05-03 21:15 23.40334 113.48641 25380 ft 442 kts 295°
2026-05-03 21:15 23.41873 113.45731 25691 ft 443 kts 295°
2026-05-03 21:15 23.43406 113.42820 25997 ft 445 kts 295°
2026-05-03 21:16 23.44953 113.39895 26301 ft 446 kts 295°
2026-05-03 21:16 23.46496 113.36998 26600 ft 448 kts 295°
2026-05-03 21:16 23.48073 113.34054 26913 ft 450 kts 295°
2026-05-03 21:16 23.49661 113.31106 27208 ft 453 kts 295°
2026-05-03 21:17 23.51261 113.28139 27511 ft 454 kts 295°
2026-05-03 21:17 23.52344 113.26131 27714 ft 456 kts 295°
2026-05-03 21:17 23.54479 113.22171 28081 ft 459 kts 295°
2026-05-03 21:17 23.56095 113.19169 28351 ft 461 kts 295°
2026-05-03 21:18 23.57721 113.16151 28626 ft 463 kts 295°
2026-05-03 21:18 23.59354 113.13119 28889 ft 465 kts 295°
2026-05-03 21:18 23.60994 113.10066 29160 ft 467 kts 295°
2026-05-03 21:18 23.62635 113.07006 29431 ft 468 kts 295°
2026-05-03 21:19 23.64274 113.03949 29790 ft 467 kts 294°
2026-05-03 21:19 23.65917 113.00886 30173 ft 466 kts 294°
2026-05-03 21:19 23.67529 112.97880 30491 ft 464 kts 294°
2026-05-03 21:19 23.69156 112.94844 30834 ft 463 kts 294°
2026-05-03 21:20 23.70781 112.91814 31152 ft 461 kts 294°
2026-05-03 21:20 23.72400 112.88794 31480 ft 460 kts 294°
2026-05-03 21:20 23.73993 112.85817 31823 ft 458 kts 294°
2026-05-03 21:20 23.75610 112.82787 32096 ft 457 kts 294°
2026-05-03 21:21 23.77209 112.79790 32387 ft 456 kts 294°
2026-05-03 21:21 23.78802 112.76802 32695 ft 455 kts 294°
2026-05-03 21:21 23.80395 112.73811 32973 ft 454 kts 294°
2026-05-03 21:21 23.81981 112.70831 33253 ft 454 kts 294°
2026-05-03 21:22 23.83565 112.67855 33566 ft 452 kts 294°
2026-05-03 21:22 23.85152 112.64876 33839 ft 452 kts 294°
2026-05-03 21:22 23.86709 112.61954 34100 ft 451 kts 294°
2026-05-03 21:22 23.88283 112.58995 34347 ft 449 kts 294°
2026-05-03 21:23 23.89852 112.56040 34550 ft 448 kts 294°
2026-05-03 21:23 23.91410 112.53098 34744 ft 448 kts 294°
2026-05-03 21:23 23.92971 112.50151 34980 ft 447 kts 294°
2026-05-03 21:23 23.94526 112.47219 35173 ft 446 kts 294°
2026-05-03 21:24 23.96085 112.44280 35408 ft 444 kts 294°
2026-05-03 21:24 23.97627 112.41373 35630 ft 443 kts 294°
2026-05-03 21:24 23.99177 112.38449 35855 ft 442 kts 294°
2026-05-03 21:24 24.00716 112.35538 36012 ft 442 kts 294°
2026-05-03 21:25 24.03808 112.29675 36042 ft 448 kts 294°
2026-05-03 21:25 24.06899 112.23818 36056 ft 447 kts 294°
2026-05-03 21:26 24.10004 112.17932 36051 ft 446 kts 294°
2026-05-03 21:26 24.13103 112.12052 36050 ft 445 kts 294°
2026-05-03 21:27 24.16199 112.06166 36051 ft 445 kts 294°
2026-05-03 21:27 24.19291 112.00283 36056 ft 445 kts 294°
2026-05-03 21:28 24.22354 111.94445 36048 ft 444 kts 294°
2026-05-03 21:28 24.25430 111.88577 36059 ft 443 kts 294°
2026-05-03 21:29 24.28496 111.82717 36064 ft 443 kts 294°
2026-05-03 21:29 24.31554 111.76867 36064 ft 442 kts 293°
2026-05-03 21:30 24.34606 111.71017 36064 ft 442 kts 293°
2026-05-03 21:30 24.37659 111.65166 36068 ft 442 kts 293°
2026-05-03 21:31 24.40708 111.59317 36070 ft 441 kts 293°
2026-05-03 21:31 24.43735 111.53502 36069 ft 441 kts 293°
2026-05-03 21:32 24.46774 111.47655 36077 ft 440 kts 293°
2026-05-03 21:32 24.49810 111.41804 36077 ft 440 kts 293°
2026-05-03 21:33 24.52840 111.35958 36078 ft 440 kts 293°
2026-05-03 21:33 24.55846 111.30152 36079 ft 440 kts 293°
2026-05-03 21:34 24.58873 111.24308 36083 ft 440 kts 293°
2026-05-03 21:34 24.61887 111.18469 36074 ft 439 kts 293°
2026-05-03 21:35 24.64899 111.12628 36084 ft 439 kts 293°
2026-05-03 21:35 24.67913 111.06775 36084 ft 439 kts 293°
2026-05-03 21:36 24.70919 111.00934 36090 ft 439 kts 293°
2026-05-03 21:36 24.73927 110.95082 36092 ft 439 kts 293°
2026-05-03 21:37 24.76926 110.89244 36091 ft 438 kts 293°
2026-05-03 21:37 24.79925 110.83399 36086 ft 438 kts 293°
2026-05-03 21:38 24.82900 110.77594 36091 ft 438 kts 292°
2026-05-03 21:38 24.85885 110.71753 36093 ft 438 kts 292°
2026-05-03 21:39 24.88869 110.65906 36082 ft 437 kts 292°
2026-05-03 21:39 24.91851 110.60058 36089 ft 437 kts 292°
2026-05-03 21:40 24.94825 110.54219 36091 ft 437 kts 292°
2026-05-03 21:40 24.97809 110.48358 36094 ft 438 kts 292°
2026-05-03 21:41 25.00786 110.42502 36099 ft 438 kts 292°
2026-05-03 21:41 25.03745 110.36679 36096 ft 437 kts 292°
2026-05-03 21:42 25.06709 110.30830 36095 ft 437 kts 292°
2026-05-03 21:42 25.09673 110.24972 36101 ft 437 kts 292°
2026-05-03 21:43 25.12631 110.19121 36102 ft 437 kts 292°
2026-05-03 21:43 25.15602 110.13253 36103 ft 437 kts 292°
2026-05-03 21:44 25.18539 110.07427 36105 ft 437 kts 292°
2026-05-03 21:44 25.21490 110.01562 36103 ft 437 kts 292°
2026-05-03 21:45 25.24444 109.95687 36104 ft 437 kts 292°
2026-05-03 21:45 25.27399 109.89811 36103 ft 437 kts 292°
2026-05-03 21:46 25.30347 109.83933 36109 ft 437 kts 292°
2026-05-03 21:46 25.33290 109.78059 36107 ft 436 kts 292°
2026-05-03 21:47 25.36226 109.72197 36113 ft 436 kts 292°
2026-05-03 21:47 25.39163 109.66324 36117 ft 436 kts 292°
2026-05-03 21:48 25.42079 109.60482 36119 ft 436 kts 292°
2026-05-03 21:48 25.45008 109.54607 36127 ft 436 kts 292°
2026-05-03 21:49 25.47935 109.48732 36116 ft 436 kts 292°
2026-05-03 21:49 25.50368 109.43849 36125 ft 436 kts 292°
2026-05-03 21:50 25.53295 109.37969 36127 ft 436 kts 292°
2026-05-03 21:50 25.56212 109.32081 36128 ft 435 kts 292°
2026-05-03 21:51 25.59118 109.26208 36139 ft 435 kts 292°
2026-05-03 21:51 25.62008 109.20366 36135 ft 434 kts 292°
2026-05-03 21:52 25.64914 109.14488 36136 ft 434 kts 292°
2026-05-03 21:52 25.67809 109.08624 36142 ft 434 kts 292°
2026-05-03 21:53 25.70710 109.02742 36148 ft 434 kts 292°
2026-05-03 21:53 25.73606 108.96860 36151 ft 434 kts 292°
2026-05-03 21:54 25.76500 108.90976 36156 ft 434 kts 292°
2026-05-03 21:54 25.79392 108.85086 36157 ft 434 kts 292°
2026-05-03 21:55 25.82277 108.79203 36158 ft 434 kts 292°
2026-05-03 21:55 25.85161 108.73313 36162 ft 434 kts 292°
2026-05-03 21:56 25.88047 108.67411 36160 ft 435 kts 292°
2026-05-03 21:56 25.90933 108.61511 36167 ft 435 kts 292°
2026-05-03 21:57 25.93820 108.55594 36166 ft 435 kts 292°
2026-05-03 21:57 25.96700 108.49682 36176 ft 435 kts 292°
2026-05-03 21:58 25.99562 108.43798 36173 ft 435 kts 292°
2026-05-03 21:58 26.02436 108.37883 36170 ft 435 kts 292°
2026-05-03 21:59 26.05322 108.31949 36173 ft 435 kts 292°
2026-05-03 21:59 26.08192 108.26026 36169 ft 435 kts 293°
2026-05-03 22:00 26.11065 108.20086 36175 ft 435 kts 292°
2026-05-03 22:00 26.13930 108.14155 36182 ft 435 kts 292°
2026-05-03 22:01 26.16777 108.08247 36181 ft 435 kts 292°
2026-05-03 22:01 26.19644 108.02300 36180 ft 436 kts 292°
2026-05-03 22:02 26.22513 107.96344 36185 ft 436 kts 292°
2026-05-03 22:02 26.25375 107.90394 36194 ft 435 kts 292°
2026-05-03 22:03 26.28219 107.84471 36189 ft 436 kts 292°
2026-05-03 22:03 26.31077 107.78512 36194 ft 436 kts 292°
2026-05-03 22:04 26.33935 107.72540 36191 ft 436 kts 292°
2026-05-03 22:04 26.36794 107.66562 36191 ft 436 kts 292°
2026-05-03 22:05 26.39645 107.60591 36199 ft 437 kts 292°
2026-05-03 22:05 26.42482 107.54640 36198 ft 437 kts 292°
2026-05-03 22:06 26.45338 107.48648 36198 ft 437 kts 292°
2026-05-03 22:06 26.48194 107.42654 36201 ft 437 kts 292°
2026-05-03 22:07 26.51039 107.36657 36203 ft 436 kts 292°
2026-05-03 22:07 26.53879 107.30673 36208 ft 436 kts 292°
2026-05-03 22:08 26.56725 107.24667 36210 ft 437 kts 292°
2026-05-03 22:08 26.59548 107.18691 36214 ft 438 kts 292°
2026-05-03 22:09 26.62388 107.12673 36214 ft 438 kts 292°
2026-05-03 22:10 26.66643 107.03649 36209 ft 437 kts 292°
2026-05-03 22:10 26.69477 106.97627 36206 ft 437 kts 292°
2026-05-03 22:11 26.72310 106.91601 36209 ft 438 kts 292°
2026-05-03 22:11 26.75142 106.85568 36216 ft 438 kts 292°
2026-05-03 22:12 26.78138 106.79631 36217 ft 442 kts 299°
2026-05-03 22:12 26.82303 106.74461 36219 ft 453 kts 310°
2026-05-03 22:13 26.87025 106.69756 36211 ft 455 kts 312°
2026-05-03 22:13 26.91811 106.65131 36209 ft 455 kts 312°
2026-05-03 22:14 26.96593 106.60485 36210 ft 454 kts 312°
2026-05-03 22:14 27.01320 106.55855 36203 ft 454 kts 312°
2026-05-03 22:15 27.06066 106.51188 36203 ft 454 kts 312°
2026-05-03 22:15 27.10808 106.46520 36201 ft 453 kts 312°
2026-05-03 22:16 27.15547 106.41849 36203 ft 453 kts 312°
2026-05-03 22:16 27.20276 106.37189 36205 ft 452 kts 312°
2026-05-03 22:17 27.25029 106.32552 36211 ft 452 kts 312°
2026-05-03 22:17 27.29795 106.27922 36201 ft 452 kts 312°
2026-05-03 22:18 27.34548 106.23298 36209 ft 452 kts 312°
2026-05-03 22:18 27.39300 106.18665 36196 ft 451 kts 312°
2026-05-03 22:19 27.44012 106.14060 36198 ft 451 kts 312°
2026-05-03 22:19 27.48750 106.09427 36200 ft 451 kts 312°
2026-05-03 22:20 27.53481 106.04794 36199 ft 451 kts 312°
2026-05-03 22:20 27.58212 106.00156 36192 ft 451 kts 312°
2026-05-03 22:21 27.62947 105.95506 36200 ft 450 kts 312°
2026-05-03 22:21 27.67674 105.90864 36195 ft 450 kts 312°
2026-05-03 22:22 27.71916 105.85793 36197 ft 439 kts 300°
2026-05-03 22:22 27.74714 105.79787 36197 ft 430 kts 286°
2026-05-03 22:23 27.76594 105.73429 36191 ft 430 kts 284°
2026-05-03 22:23 27.78356 105.66980 36186 ft 429 kts 284°
2026-05-03 22:24 27.80248 105.60586 36185 ft 430 kts 289°
2026-05-03 22:24 27.82581 105.54361 36187 ft 431 kts 289°
2026-05-03 22:25 27.84990 105.48145 36178 ft 432 kts 290°
2026-05-03 22:25 27.87407 105.41923 36176 ft 432 kts 290°
2026-05-03 22:26 27.89867 105.35711 36175 ft 433 kts 291°
2026-05-03 22:26 27.92600 105.29632 36164 ft 433 kts 293°
2026-05-03 22:27 27.95386 105.23568 36164 ft 434 kts 293°
2026-05-03 22:27 27.98807 105.17915 36157 ft 444 kts 306°
2026-05-03 22:28 28.03603 105.13371 36152 ft 457 kts 319°
2026-05-03 22:28 28.08999 105.09521 36147 ft 459 kts 321°
2026-05-03 22:29 28.14474 105.05763 36142 ft 460 kts 321°
2026-05-03 22:29 28.19934 105.01988 36136 ft 459 kts 321°
2026-05-03 22:30 28.25365 104.98195 36135 ft 458 kts 321°
2026-05-03 22:30 28.30792 104.94387 36129 ft 457 kts 321°
2026-05-03 22:31 28.36164 104.90612 36130 ft 457 kts 321°
2026-05-03 22:31 28.41573 104.86818 36127 ft 456 kts 321°
2026-05-03 22:32 28.46973 104.83047 36122 ft 456 kts 321°
2026-05-03 22:32 28.52375 104.79269 36124 ft 455 kts 321°
2026-05-03 22:33 28.57767 104.75491 36118 ft 455 kts 321°
2026-05-03 22:33 28.63151 104.71715 36112 ft 455 kts 321°
2026-05-03 22:34 28.68540 104.67929 36109 ft 455 kts 321°
2026-05-03 22:34 28.73926 104.64142 36124 ft 455 kts 320°
2026-05-03 22:35 28.79284 104.60369 36115 ft 455 kts 321°
2026-05-03 22:35 28.84671 104.56574 36113 ft 455 kts 320°
2026-05-03 22:36 28.90066 104.52762 36111 ft 456 kts 320°
2026-05-03 22:36 28.94537 104.49571 36112 ft 456 kts 320°
2026-05-03 22:37 28.99921 104.45722 36109 ft 456 kts 320°
2026-05-03 22:37 29.06187 104.41245 36108 ft 456 kts 320°
2026-05-03 22:38 29.11574 104.37395 36109 ft 456 kts 320°
2026-05-03 22:38 29.16087 104.34167 36106 ft 456 kts 320°
2026-05-03 22:39 29.21466 104.30381 36102 ft 460 kts 324°
2026-05-03 22:39 29.27544 104.27736 36105 ft 479 kts 340°
2026-05-03 22:39 29.30879 104.27230 36105 ft 490 kts 349°
2026-05-03 22:40 29.34332 104.27366 36109 ft 501 kts 358°
2026-05-03 22:40 29.41284 104.28428 36105 ft 506 kts
2026-05-03 22:41 29.48246 104.29695 36101 ft 506 kts
2026-05-03 22:41 29.55211 104.30938 36105 ft 506 kts
2026-05-03 22:42 29.62173 104.32137 36105 ft 505 kts 360°
2026-05-03 22:42 29.69129 104.33320 36105 ft 505 kts 360°
2026-05-03 22:43 29.76099 104.34506 36100 ft 506 kts 360°
2026-05-03 22:43 29.83062 104.35695 36106 ft 506 kts 360°
2026-05-03 22:44 29.89985 104.36881 36104 ft 506 kts 360°
2026-05-03 22:44 29.96944 104.38075 36103 ft 506 kts 360°
2026-05-03 22:45 30.03908 104.39271 36106 ft 506 kts 360°
2026-05-03 22:45 30.10875 104.40468 36105 ft 506 kts 360°
2026-05-03 22:46 30.17838 104.41675 36105 ft 506 kts 360°
2026-05-03 22:46 30.24797 104.42888 36103 ft 506 kts 360°
2026-05-03 22:47 30.31773 104.44103 36104 ft 507 kts 360°
2026-05-03 22:47 30.38748 104.45321 36105 ft 507 kts 360°
2026-05-03 22:48 30.45730 104.46542 36108 ft 508 kts 360°
2026-05-03 22:48 30.52673 104.47759 36109 ft 508 kts 359°
2026-05-03 22:49 30.59628 104.48475 36115 ft 492 kts 348°
2026-05-03 22:49 30.62965 104.48033 36115 ft 479 kts 339°
2026-05-03 22:49 30.66176 104.47073 36114 ft 471 kts 334°
2026-05-03 22:50 30.72404 104.44776 36116 ft 469 kts 332°
2026-05-03 22:50 30.78592 104.42346 36118 ft 469 kts 332°
2026-05-03 22:51 30.84794 104.39974 36116 ft 473 kts 335°
2026-05-03 22:51 30.88052 104.39193 36120 ft 484 kts 343°
2026-05-03 22:51 30.91442 104.38876 36122 ft 491 kts 347°
2026-05-03 22:52 30.98307 104.38615 36122 ft 495 kts 349°
2026-05-03 22:52 31.05151 104.38483 36117 ft 495 kts 349°
2026-05-03 22:53 31.12046 104.38337 36128 ft 495 kts 348°
2026-05-03 22:53 31.18941 104.38165 36129 ft 495 kts 348°
2026-05-03 22:54 31.25822 104.37982 36127 ft 495 kts 348°
2026-05-03 22:54 31.32687 104.37654 36128 ft 491 kts 347°
2026-05-03 22:55 31.39509 104.37199 36131 ft 491 kts 346°
2026-05-03 22:55 31.46340 104.36762 36130 ft 491 kts 347°
2026-05-03 22:56 31.53174 104.36353 36130 ft 492 kts 347°
2026-05-03 22:56 31.59970 104.35956 36137 ft 492 kts 347°
2026-05-03 22:57 31.66804 104.35558 36144 ft 492 kts 347°
2026-05-03 22:57 31.73649 104.35157 36139 ft 491 kts 347°
2026-05-03 22:58 31.80489 104.34771 36140 ft 493 kts 347°
2026-05-03 22:58 31.87349 104.34422 36145 ft 494 kts 347°
2026-05-03 22:59 31.94238 104.34075 36158 ft 497 kts 347°
2026-05-03 22:59 32.01141 104.33722 36159 ft 496 kts 347°
2026-05-03 23:00 32.08003 104.33371 36154 ft 498 kts 347°
2026-05-03 23:00 32.14922 104.33022 36156 ft 495 kts 347°
2026-05-03 23:01 32.21791 104.32670 36161 ft 493 kts 346°
2026-05-03 23:01 32.28658 104.32308 36152 ft 494 kts 346°
2026-05-03 23:02 32.35528 104.31956 36153 ft 494 kts 346°
2026-05-03 23:02 32.42403 104.31607 36157 ft 494 kts 346°
2026-05-03 23:03 32.49246 104.31271 36147 ft 495 kts 346°
2026-05-03 23:03 32.56104 104.30946 36202 ft 494 kts 346°
2026-05-03 23:04 32.62995 104.30614 36153 ft 495 kts 347°
2026-05-03 23:04 32.69884 104.30280 36127 ft 494 kts 346°
2026-05-03 23:05 32.76763 104.29953 36151 ft 494 kts 347°
2026-05-03 23:05 32.83624 104.29628 36153 ft 492 kts 347°
2026-05-03 23:06 32.90453 104.29309 36148 ft 491 kts 346°
2026-05-03 23:06 32.97276 104.28973 36160 ft 491 kts 346°
2026-05-03 23:07 33.04073 104.28631 36141 ft 491 kts 346°
2026-05-03 23:07 33.10893 104.28310 36142 ft 489 kts 346°
2026-05-03 23:08 33.17685 104.27987 36158 ft 488 kts 347°
2026-05-03 23:08 33.24509 104.27635 36141 ft 492 kts 346°
2026-05-03 23:09 33.31351 104.27235 36142 ft 487 kts 343°
2026-05-03 23:09 33.34611 104.26595 36143 ft 474 kts 335°
2026-05-03 23:09 33.37713 104.25420 36148 ft 461 kts 327°
2026-05-03 23:10 33.43339 104.21996 36134 ft 451 kts 321°
2026-05-03 23:10 33.48792 104.18273 36140 ft 451 kts 320°
2026-05-03 23:11 33.54246 104.14505 36146 ft 454 kts 322°
2026-05-03 23:11 33.60232 104.11778 36144 ft 475 kts 338°
2026-05-03 23:11 33.63554 104.11223 36139 ft 488 kts 347°
2026-05-03 23:12 33.66967 104.11072 36136 ft 492 kts 349°
2026-05-03 23:12 33.73824 104.11080 36142 ft 494 kts 351°
2026-05-03 23:13 33.80696 104.11156 36136 ft 494 kts 350°
2026-05-03 23:13 33.87582 104.11190 36131 ft 494 kts 350°
2026-05-03 23:14 33.94467 104.11193 36134 ft 494 kts 350°
2026-05-03 23:14 34.01335 104.11192 36127 ft 492 kts 350°
2026-05-03 23:15 34.08196 104.11191 36128 ft 492 kts 350°
2026-05-03 23:15 34.14990 104.11199 36131 ft 490 kts 351°
2026-05-03 23:16 34.21814 104.11199 36127 ft 490 kts 351°
2026-05-03 23:16 34.28647 104.11194 36131 ft 490 kts 351°
2026-05-03 23:17 34.35467 104.11194 36132 ft 490 kts 351°
2026-05-03 23:17 34.42284 104.11198 36132 ft 490 kts 352°
2026-05-03 23:18 34.49101 104.11201 36129 ft 489 kts 352°
2026-05-03 23:18 34.55853 104.11198 36122 ft 488 kts 352°
2026-05-03 23:19 34.62649 104.11195 36122 ft 488 kts 352°
2026-05-03 23:19 34.69436 104.11193 36112 ft 487 kts 352°
2026-05-03 23:20 34.76219 104.11195 36109 ft 487 kts 353°
2026-05-03 23:20 34.82981 104.11201 36103 ft 485 kts 353°
2026-05-03 23:21 34.89705 104.11201 36095 ft 485 kts 353°
2026-05-03 23:21 34.96454 104.11202 36088 ft 484 kts 353°
2026-05-03 23:22 35.06572 104.11198 36089 ft 484 kts 354°
2026-05-03 23:22 35.13316 104.11195 36086 ft 484 kts 354°
2026-05-03 23:23 35.20046 104.11193 36086 ft 483 kts 354°
2026-05-03 23:23 35.26726 104.11191 36087 ft 483 kts 354°
2026-05-03 23:24 35.33448 104.11192 36088 ft 482 kts 354°
2026-05-03 23:24 35.40158 104.11193 36087 ft 482 kts 355°
2026-05-03 23:25 35.46826 104.11181 36079 ft 475 kts 358°
2026-05-03 23:25 35.53407 104.11193 36086 ft 470 kts 358°
2026-05-03 23:26 35.58845 104.11221 36085 ft 470 kts 358°
2026-05-03 23:26 35.65383 104.11255 36083 ft 470 kts 358°
2026-05-03 23:27 35.71918 104.11285 36078 ft 469 kts 358°
2026-05-03 23:27 35.78451 104.11313 36074 ft 469 kts 358°
2026-05-03 23:28 35.84960 104.11078 36075 ft 468 kts 354°
2026-05-03 23:28 35.91447 104.10425 36073 ft 467 kts 353°
2026-05-03 23:29 35.97925 104.09710 36074 ft 467 kts 353°
2026-05-03 23:29 36.04399 104.08990 36076 ft 467 kts 353°
2026-05-03 23:30 36.10884 104.08276 36077 ft 467 kts 353°
2026-05-03 23:30 36.17321 104.07569 36077 ft 467 kts 353°
2026-05-03 23:31 36.23793 104.06858 36082 ft 467 kts 353°
2026-05-03 23:31 36.30269 104.06158 36076 ft 467 kts 353°
2026-05-03 23:32 36.36741 104.05448 36077 ft 466 kts 353°
2026-05-03 23:32 36.43210 104.04732 36077 ft 467 kts 353°
2026-05-03 23:33 36.49679 104.04017 36078 ft 466 kts 353°
2026-05-03 23:33 36.55985 104.02349 36078 ft 463 kts 338°
2026-05-03 23:34 36.61558 103.98537 36074 ft 460 kts 321°
2026-05-03 23:34 36.65910 103.92723 36081 ft 461 kts 304°
2026-05-03 23:35 36.69122 103.85787 36084 ft 463 kts 300°
2026-05-03 23:35 36.72147 103.78690 36086 ft 463 kts 299°
2026-05-03 23:36 36.75148 103.71636 36090 ft 463 kts 299°
2026-05-03 23:36 36.78186 103.64563 36085 ft 463 kts 299°
2026-05-03 23:37 36.81234 103.57489 36084 ft 462 kts 299°
2026-05-03 23:37 36.84280 103.50409 36081 ft 462 kts 299°
2026-05-03 23:38 36.87318 103.43330 36082 ft 462 kts 299°
2026-05-03 23:38 36.90348 103.36250 36076 ft 462 kts 299°
2026-05-03 23:39 36.93380 103.29151 36070 ft 462 kts 299°
2026-05-03 23:39 36.96593 103.22207 36069 ft 461 kts 303°
2026-05-03 23:40 37.00091 103.15490 36062 ft 461 kts 304°
2026-05-03 23:40 37.03556 103.08802 36057 ft 461 kts 303°
2026-05-03 23:41 37.06990 103.02024 36060 ft 461 kts 303°
2026-05-03 23:41 37.10398 102.95221 36054 ft 461 kts 302°
2026-05-03 23:42 37.13797 102.88410 36059 ft 460 kts 302°
2026-05-03 23:42 37.17188 102.81610 36058 ft 460 kts 302°
2026-05-03 23:43 37.20580 102.74801 36058 ft 460 kts 302°
2026-05-03 23:43 37.23968 102.67984 36056 ft 460 kts 302°
2026-05-03 23:44 37.27344 102.61175 36062 ft 460 kts 302°
2026-05-03 23:44 37.30723 102.54348 36063 ft 460 kts 302°
2026-05-03 23:45 37.34083 102.47509 36061 ft 460 kts 300°
2026-05-03 23:45 37.36556 102.40108 36070 ft 461 kts 287°
2026-05-03 23:46 37.38192 102.32355 36074 ft 462 kts 285°
2026-05-03 23:46 37.39709 102.24493 36085 ft 462 kts 285°
2026-05-03 23:47 37.41219 102.16624 36086 ft 462 kts 285°
2026-05-03 23:47 37.42739 102.08766 36092 ft 462 kts 285°
2026-05-03 23:48 37.44267 102.00896 36093 ft 462 kts 285°
2026-05-03 23:48 37.45788 101.93037 36088 ft 463 kts 285°
2026-05-03 23:49 37.47304 101.85160 36088 ft 463 kts 285°
2026-05-03 23:49 37.48804 101.77334 36086 ft 462 kts 285°
2026-05-03 23:50 37.50120 101.70764 36084 ft 462 kts 289°
2026-05-03 23:50 37.53167 101.62213 36080 ft 460 kts 298°
2026-05-03 23:51 37.56186 101.55093 36077 ft 460 kts 299°
2026-05-03 23:51 37.59240 101.47997 36075 ft 460 kts 299°
2026-05-03 23:52 37.62259 101.40941 36075 ft 460 kts 299°
2026-05-03 23:52 37.65281 101.33824 36074 ft 460 kts 298°
2026-05-03 23:53 37.68295 101.26701 36072 ft 460 kts 298°
2026-05-03 23:53 37.71302 101.19574 36070 ft 460 kts 298°
2026-05-03 23:54 37.74310 101.12433 36070 ft 460 kts 298°
2026-05-03 23:54 37.77311 101.05297 36064 ft 460 kts 298°
2026-05-03 23:55 37.80307 100.98156 36057 ft 460 kts 298°
2026-05-03 23:55 37.83302 100.91004 36064 ft 460 kts 298°
2026-05-03 23:56 37.86407 100.83933 36063 ft 460 kts 300°
2026-05-03 23:56 37.89565 100.76957 36058 ft 459 kts 300°
2026-05-03 23:57 37.92746 100.69878 36060 ft 459 kts 300°
2026-05-03 23:57 37.95869 100.62860 36059 ft 459 kts 300°
2026-05-03 23:58 37.99000 100.55794 36057 ft 459 kts 300°
2026-05-03 23:58 38.02126 100.48722 36055 ft 459 kts 300°
2026-05-03 23:59 38.05245 100.41651 36058 ft 459 kts 300°
2026-05-03 23:59 38.08364 100.34567 36052 ft 460 kts 300°
2026-05-04 00:00 38.11476 100.27483 36049 ft 460 kts 300°
2026-05-04 00:00 38.14590 100.20378 36050 ft 460 kts 300°
2026-05-04 00:01 38.17699 100.13272 36048 ft 460 kts 300°
2026-05-04 00:01 38.20780 100.06210 36044 ft 460 kts 300°
2026-05-04 00:02 38.23877 99.99094 36042 ft 460 kts 300°
2026-05-04 00:02 38.26976 99.91962 36049 ft 460 kts 300°
2026-05-04 00:03 38.30073 99.84817 36041 ft 460 kts 300°
2026-05-04 00:03 38.33166 99.77668 36041 ft 461 kts 300°
2026-05-04 00:04 38.36233 99.70556 36045 ft 461 kts 300°
2026-05-04 00:04 38.39314 99.63399 36040 ft 461 kts 300°
2026-05-04 00:05 38.42395 99.56229 36044 ft 461 kts 300°
2026-05-04 00:05 38.45475 99.49032 36040 ft 461 kts 300°
2026-05-04 00:06 38.48550 99.41847 36054 ft 462 kts 300°
2026-05-04 00:06 38.51626 99.34623 36056 ft 462 kts 300°
2026-05-04 00:07 38.54696 99.27416 36062 ft 462 kts 300°
2026-05-04 00:07 38.57746 99.20238 36061 ft 462 kts 300°
2026-05-04 00:08 38.60809 99.13012 36067 ft 462 kts 300°
2026-05-04 00:08 38.63866 99.05783 36074 ft 462 kts 300°
2026-05-04 00:09 38.66916 98.98550 36077 ft 462 kts 300°
2026-05-04 00:09 38.69964 98.91304 36080 ft 462 kts 300°
2026-05-04 00:10 38.73001 98.84068 36083 ft 462 kts 300°
2026-05-04 00:10 38.76034 98.76826 36085 ft 461 kts 300°
2026-05-04 00:11 38.79065 98.69571 36086 ft 461 kts 300°
2026-05-04 00:11 38.82090 98.62313 36098 ft 461 kts 300°
2026-05-04 00:12 38.85091 98.55099 36097 ft 461 kts 300°
2026-05-04 00:12 38.88110 98.47823 36095 ft 461 kts 300°
2026-05-04 00:13 38.91123 98.40543 36092 ft 461 kts 300°
2026-05-04 00:13 38.93618 98.34504 36095 ft 461 kts 300°
2026-05-04 00:14 38.96622 98.27215 36097 ft 461 kts 300°
2026-05-04 00:14 39.00108 98.18737 36095 ft 461 kts 300°
2026-05-04 00:15 39.02615 98.12624 36091 ft 461 kts 300°
2026-05-04 00:15 39.05593 98.05342 36092 ft 460 kts 300°
2026-05-04 00:16 39.08574 97.98042 36076 ft 459 kts 300°
2026-05-04 00:16 39.11547 97.90751 36088 ft 460 kts 300°
2026-05-04 00:17 39.14497 97.83491 36072 ft 460 kts 300°
2026-05-04 00:17 39.17461 97.76172 36078 ft 460 kts 300°
2026-05-04 00:18 39.20422 97.68853 36069 ft 460 kts 300°
2026-05-04 00:18 39.23377 97.61535 36069 ft 460 kts 300°
2026-05-04 00:19 39.26331 97.54222 36065 ft 459 kts 300°
2026-05-04 00:19 39.29282 97.46903 36056 ft 459 kts 300°
2026-05-04 00:20 39.32206 97.39636 36056 ft 458 kts 300°
2026-05-04 00:20 39.35138 97.32331 36045 ft 458 kts 300°
2026-05-04 00:21 39.38066 97.25016 36041 ft 458 kts 300°
2026-05-04 00:21 39.40985 97.17705 36036 ft 457 kts 300°
2026-05-04 00:22 39.43895 97.10403 36028 ft 457 kts 300°
2026-05-04 00:22 39.46800 97.03095 36016 ft 457 kts 300°
2026-05-04 00:23 39.49725 96.95787 36007 ft 456 kts 300°
2026-05-04 00:23 39.52624 96.88544 36003 ft 456 kts 300°
2026-05-04 00:24 39.55542 96.81253 35990 ft 456 kts 300°
2026-05-04 00:24 39.58454 96.73956 35977 ft 455 kts 300°
2026-05-04 00:25 39.61354 96.66663 35969 ft 455 kts 300°
2026-05-04 00:25 39.64251 96.59363 35959 ft 455 kts 300°
2026-05-04 00:26 39.67131 96.52058 35947 ft 454 kts 299°
2026-05-04 00:26 39.69997 96.44748 35937 ft 454 kts 299°
2026-05-04 00:27 39.72856 96.37445 35929 ft 453 kts 299°
2026-05-04 00:27 39.75714 96.30138 35911 ft 453 kts 299°
2026-05-04 00:28 39.78565 96.22831 35897 ft 453 kts 299°
2026-05-04 00:28 39.81408 96.15525 35885 ft 452 kts 299°
2026-05-04 00:29 39.84244 96.08223 35868 ft 452 kts 299°
2026-05-04 00:29 39.87074 96.00914 35866 ft 452 kts 299°
2026-05-04 00:30 39.89879 95.93652 35855 ft 451 kts 299°
2026-05-04 00:30 39.92695 95.86346 35847 ft 451 kts 299°
2026-05-04 00:31 39.95506 95.79037 35836 ft 451 kts 299°
2026-05-04 00:31 39.98307 95.71733 35828 ft 450 kts 299°
2026-05-04 00:32 40.01102 95.64427 35821 ft 449 kts 298°
2026-05-04 00:32 40.03888 95.57126 35815 ft 449 kts 298°
2026-05-04 00:33 40.08046 95.46198 35807 ft 448 kts 298°
2026-05-04 00:34 40.10814 95.38901 35801 ft 447 kts 298°
2026-05-04 00:34 40.13569 95.31619 35795 ft 447 kts 298°
2026-05-04 00:35 40.16302 95.24381 35792 ft 446 kts 298°
2026-05-04 00:35 40.19046 95.17095 35794 ft 446 kts 298°
2026-05-04 00:36 40.21787 95.09827 35798 ft 445 kts 298°
2026-05-04 00:36 40.24552 95.02575 35795 ft 445 kts 298°
2026-05-04 00:37 40.27312 94.95326 35798 ft 444 kts 298°
2026-05-04 00:37 40.30118 94.88117 35795 ft 443 kts 302°
2026-05-04 00:38 40.33688 94.81543 35801 ft 441 kts 308°
2026-05-04 00:38 40.37491 94.75222 35794 ft 441 kts 309°
2026-05-04 00:39 40.41325 94.68936 35798 ft 441 kts 309°
2026-05-04 00:39 40.45120 94.62680 35801 ft 441 kts 309°
2026-05-04 00:40 40.48929 94.56365 35798 ft 441 kts 309°
2026-05-04 00:40 40.52733 94.50038 35797 ft 441 kts 309°
2026-05-04 00:41 40.56530 94.43711 35799 ft 441 kts 309°
2026-05-04 00:41 40.60324 94.37375 35800 ft 440 kts 308°
2026-05-04 00:42 40.64108 94.31044 35803 ft 440 kts 308°
2026-05-04 00:42 40.67894 94.24698 35802 ft 440 kts 308°
2026-05-04 00:43 40.71674 94.18348 35804 ft 440 kts 308°
2026-05-04 00:43 40.75450 94.11992 35801 ft 440 kts 308°
2026-05-04 00:44 40.79221 94.05631 35808 ft 440 kts 308°
2026-05-04 00:44 40.82973 93.99288 35813 ft 440 kts 308°
2026-05-04 00:45 40.86737 93.92914 35811 ft 440 kts 308°
2026-05-04 00:45 40.90498 93.86530 35816 ft 440 kts 308°
2026-05-04 00:46 40.94333 93.80211 35821 ft 440 kts 310°
2026-05-04 00:46 40.98317 93.74133 35822 ft 440 kts 311°
2026-05-04 00:47 41.02332 93.68021 35821 ft 440 kts 310°
2026-05-04 00:47 41.06321 93.61862 35825 ft 440 kts 310°
2026-05-04 00:48 41.10294 93.55677 35826 ft 440 kts 310°
2026-05-04 00:48 41.14252 93.49496 35830 ft 440 kts 310°
2026-05-04 00:49 41.18213 93.43300 35826 ft 440 kts 310°
2026-05-04 00:49 41.22166 93.37105 35831 ft 440 kts 310°
2026-05-04 00:50 41.26099 93.30930 35826 ft 440 kts 310°
2026-05-04 00:50 41.30046 93.24721 35827 ft 440 kts 309°
2026-05-04 00:51 41.33989 93.18505 35824 ft 439 kts 309°
2026-05-04 00:51 41.37932 93.12276 35822 ft 439 kts 309°
2026-05-04 00:52 41.41870 93.06043 35820 ft 439 kts 309°
2026-05-04 00:52 41.45777 92.99845 35816 ft 439 kts 309°
2026-05-04 00:53 41.49705 92.93602 35819 ft 439 kts 309°
2026-05-04 00:53 41.53628 92.87352 35811 ft 439 kts 309°
2026-05-04 00:54 41.57548 92.81095 35812 ft 439 kts 309°
2026-05-04 00:54 41.61463 92.74833 35811 ft 439 kts 309°
2026-05-04 00:55 41.65372 92.68569 35806 ft 439 kts 309°
2026-05-04 00:55 41.69278 92.62296 35808 ft 438 kts 309°
2026-05-04 00:56 41.73177 92.56020 35810 ft 438 kts 309°
2026-05-04 00:56 41.77072 92.49738 35804 ft 438 kts 309°
2026-05-04 00:57 41.80938 92.43488 35806 ft 438 kts 309°
2026-05-04 00:57 41.84825 92.37192 35803 ft 437 kts 309°
2026-05-04 00:58 41.88697 92.30909 35801 ft 437 kts 308°
2026-05-04 00:58 41.92571 92.24608 35803 ft 437 kts 308°
2026-05-04 00:59 41.96438 92.18306 35803 ft 436 kts 308°
2026-05-04 00:59 42.00294 92.12009 35803 ft 436 kts 308°
2026-05-04 01:00 42.04120 92.05746 35799 ft 436 kts 308°
2026-05-04 01:00 42.07968 91.99435 35799 ft 436 kts 308°
2026-05-04 01:01 42.11808 91.93124 35800 ft 435 kts 308°
2026-05-04 01:01 42.15641 91.86810 35802 ft 436 kts 308°
2026-05-04 01:02 42.18831 91.81546 35798 ft 435 kts 308°
2026-05-04 01:02 42.22696 91.75257 35799 ft 436 kts 311°
2026-05-04 01:03 42.27012 91.69489 35798 ft 436 kts 314°
2026-05-04 01:03 42.31424 91.63842 35794 ft 437 kts 314°
2026-05-04 01:04 42.35845 91.58211 35798 ft 437 kts 314°
2026-05-04 01:04 42.40242 91.52586 35793 ft 437 kts 314°
2026-05-04 01:05 42.44661 91.46909 35788 ft 438 kts 314°
2026-05-04 01:05 42.49081 91.41217 35786 ft 438 kts 314°
2026-05-04 01:06 42.53495 91.35519 35787 ft 438 kts 314°
2026-05-04 01:06 42.57913 91.29807 35784 ft 438 kts 314°
2026-05-04 01:07 42.62304 91.24117 35779 ft 438 kts 314°
2026-05-04 01:07 42.66715 91.18389 35778 ft 439 kts 313°
2026-05-04 01:08 42.71128 91.12648 35777 ft 439 kts 313°
2026-05-04 01:08 42.75551 91.06880 35775 ft 439 kts 313°
2026-05-04 01:09 42.79959 91.01121 35775 ft 439 kts 313°
2026-05-04 01:09 42.84367 90.95350 35775 ft 439 kts 313°
2026-05-04 01:10 42.88627 90.89395 35777 ft 437 kts 306°
2026-05-04 01:10 42.92049 90.82581 35778 ft 435 kts 301°
2026-05-04 01:11 42.95257 90.75572 35780 ft 435 kts 300°
2026-05-04 01:11 42.98405 90.68582 35786 ft 435 kts 300°
2026-05-04 01:12 43.01582 90.61541 35791 ft 435 kts 300°
2026-05-04 01:12 43.04759 90.54507 35796 ft 435 kts 300°
2026-05-04 01:13 43.07936 90.47466 35804 ft 435 kts 300°
2026-05-04 01:13 43.11113 90.40407 35817 ft 435 kts 300°
2026-05-04 01:14 43.14280 90.33350 35830 ft 435 kts 300°
2026-05-04 01:14 43.17439 90.26296 35844 ft 435 kts 300°
2026-05-04 01:15 43.20598 90.19226 35860 ft 434 kts 300°
2026-05-04 01:15 43.23755 90.12159 35872 ft 434 kts 300°
2026-05-04 01:16 43.26879 90.05128 35888 ft 434 kts 299°
2026-05-04 01:16 43.30020 89.98037 35905 ft 435 kts 299°
2026-05-04 01:17 43.33158 89.90947 35907 ft 434 kts 299°
2026-05-04 01:17 43.36286 89.83869 35917 ft 434 kts 299°
2026-05-04 01:18 43.39420 89.76763 35935 ft 435 kts 299°
2026-05-04 01:18 43.42536 89.69669 35936 ft 434 kts 299°
2026-05-04 01:19 43.45634 89.62594 35937 ft 434 kts 299°
2026-05-04 01:19 43.48752 89.55464 35946 ft 435 kts 299°
2026-05-04 01:20 43.51861 89.48337 35953 ft 434 kts 298°
2026-05-04 01:20 43.54964 89.41205 35956 ft 433 kts 298°
2026-05-04 01:21 43.58088 89.34088 35956 ft 434 kts 299°
2026-05-04 01:21 43.61268 89.26994 35974 ft 435 kts 299°
2026-05-04 01:22 43.64446 89.19888 35967 ft 434 kts 299°
2026-05-04 01:22 43.67604 89.12783 35966 ft 434 kts 299°
2026-05-04 01:23 43.70759 89.05657 35971 ft 435 kts 298°
2026-05-04 01:23 43.73915 88.98509 35972 ft 435 kts 298°
2026-05-04 01:24 43.77068 88.91347 35973 ft 435 kts 298°
2026-05-04 01:24 43.80196 88.84236 35979 ft 436 kts 298°
2026-05-04 01:25 43.83363 88.77010 35972 ft 436 kts 298°
2026-05-04 01:25 43.86491 88.69856 35970 ft 436 kts 298°
2026-05-04 01:26 43.89631 88.62654 35973 ft 437 kts 298°
2026-05-04 01:26 43.92768 88.55441 35970 ft 436 kts 298°
2026-05-04 01:27 43.95903 88.48219 35970 ft 436 kts 298°
2026-05-04 01:27 43.99014 88.41037 35965 ft 437 kts 298°
2026-05-04 01:28 44.02140 88.33801 35961 ft 437 kts 298°
2026-05-04 01:28 44.05266 88.26545 35954 ft 437 kts 298°
2026-05-04 01:29 44.08382 88.19292 35942 ft 437 kts 297°
2026-05-04 01:29 44.11496 88.12027 35936 ft 437 kts 297°
2026-05-04 01:30 44.14609 88.04747 35933 ft 437 kts 297°
2026-05-04 01:30 44.17830 87.97554 35920 ft 439 kts 302°
2026-05-04 01:31 44.21454 87.90686 35916 ft 440 kts 303°
2026-05-04 01:31 44.25115 87.83908 35913 ft 441 kts 303°
2026-05-04 01:32 44.28808 87.77074 35902 ft 441 kts 303°
2026-05-04 01:32 44.32496 87.70215 35905 ft 441 kts 303°
2026-05-04 01:33 44.36200 87.63379 35908 ft 441 kts 303°
2026-05-04 01:33 44.39953 87.56576 35909 ft 442 kts 303°
2026-05-04 01:34 44.43706 87.49763 35907 ft 442 kts 303°
2026-05-04 01:34 44.47427 87.42971 35906 ft 442 kts 303°
2026-05-04 01:35 44.51165 87.36123 35902 ft 443 kts 303°
2026-05-04 01:35 44.54903 87.29256 35907 ft 443 kts 303°
2026-05-04 01:36 44.58725 87.22452 35899 ft 444 kts 305°
2026-05-04 01:36 44.62659 87.15762 35898 ft 445 kts 305°
2026-05-04 01:37 44.66591 87.09046 35901 ft 445 kts 304°
2026-05-04 01:37 44.70501 87.02296 35899 ft 445 kts 304°
2026-05-04 01:38 44.74402 86.95529 35902 ft 445 kts 304°
2026-05-04 01:38 44.78303 86.88764 35902 ft 445 kts 304°
2026-05-04 01:39 44.82179 86.82031 35900 ft 445 kts 304°
2026-05-04 01:39 44.86065 86.75230 35896 ft 445 kts 304°
2026-05-04 01:40 44.89903 86.68371 35900 ft 445 kts 303°
2026-05-04 01:40 44.93738 86.61490 35898 ft 446 kts 303°
2026-05-04 01:41 44.97554 86.54646 35901 ft 446 kts 304°
2026-05-04 01:41 45.01396 86.47752 35897 ft 446 kts 303°
2026-05-04 01:42 45.05233 86.40852 35897 ft 446 kts 303°
2026-05-04 01:42 45.09063 86.33944 35898 ft 447 kts 303°
2026-05-04 01:43 45.12894 86.27020 35895 ft 447 kts 303°
2026-05-04 01:43 45.16729 86.20071 35897 ft 447 kts 303°
2026-05-04 01:44 45.20562 86.13109 35899 ft 447 kts 303°
2026-05-04 01:44 45.24376 86.06165 35894 ft 448 kts 303°
2026-05-04 01:45 45.28205 85.99175 35894 ft 448 kts 303°
2026-05-04 01:45 45.33939 85.88675 35889 ft 449 kts 303°
2026-05-04 01:46 45.37764 85.81650 35891 ft 449 kts 303°
2026-05-04 01:46 45.41586 85.74614 35879 ft 449 kts 303°
2026-05-04 01:47 45.45378 85.67614 35880 ft 449 kts 303°
2026-05-04 01:47 45.49195 85.60552 35881 ft 450 kts 303°
2026-05-04 01:48 45.53013 85.53468 35884 ft 450 kts 303°
2026-05-04 01:48 45.56829 85.46372 35885 ft 450 kts 303°
2026-05-04 01:49 45.60639 85.39270 35885 ft 451 kts 303°
2026-05-04 01:49 45.63804 85.33356 35882 ft 451 kts 303°
2026-05-04 01:50 45.67611 85.26226 35888 ft 451 kts 303°
2026-05-04 01:50 45.72042 85.17927 35892 ft 452 kts 303°
2026-05-04 01:51 45.75245 85.11948 35894 ft 452 kts 303°
2026-05-04 01:51 45.79076 85.04788 35897 ft 452 kts 303°
2026-05-04 01:52 45.82894 84.97627 35901 ft 452 kts 303°
2026-05-04 01:52 45.86689 84.90489 35904 ft 453 kts 303°
2026-05-04 01:53 45.90508 84.83290 35911 ft 453 kts 303°
2026-05-04 01:53 45.94321 84.76080 35916 ft 453 kts 303°
2026-05-04 01:54 45.98127 84.68867 35920 ft 453 kts 303°
2026-05-04 01:54 46.01938 84.61624 35927 ft 454 kts 303°
2026-05-04 01:55 46.05748 84.54367 35933 ft 454 kts 303°
2026-05-04 01:55 46.09547 84.47111 35939 ft 454 kts 303°
2026-05-04 01:56 46.13350 84.39829 35957 ft 454 kts 303°
2026-05-04 01:56 46.17148 84.32536 35952 ft 455 kts 303°
2026-05-04 01:57 46.20944 84.25230 35965 ft 455 kts 303°
2026-05-04 01:57 46.24734 84.17915 35972 ft 455 kts 303°
2026-05-04 01:58 46.28503 84.10628 35975 ft 455 kts 303°
2026-05-04 01:58 46.32280 84.03252 35980 ft 456 kts 303°
2026-05-04 01:59 46.36043 83.95867 35984 ft 456 kts 303°
2026-05-04 01:59 46.39815 83.88455 35983 ft 456 kts 303°
2026-05-04 02:00 46.43566 83.81074 35982 ft 457 kts 303°
2026-05-04 02:00 46.47331 83.73648 35984 ft 457 kts 303°
2026-05-04 02:01 46.51098 83.66198 35982 ft 458 kts 303°
2026-05-04 02:01 46.54865 83.58728 35984 ft 458 kts 303°
2026-05-04 02:02 46.58627 83.51247 35989 ft 458 kts 303°
2026-05-04 02:02 46.62384 83.43754 35989 ft 458 kts 303°
2026-05-04 02:03 46.66111 83.36304 35990 ft 459 kts 303°
2026-05-04 02:03 46.69640 83.28576 35990 ft 457 kts 298°
2026-05-04 02:04 46.72943 83.20658 35993 ft 457 kts 298°
2026-05-04 02:04 46.76273 83.12744 35993 ft 458 kts 299°
2026-05-04 02:05 46.79640 83.04866 35997 ft 458 kts 299°
2026-05-04 02:05 46.83023 82.96983 36000 ft 458 kts 299°
2026-05-04 02:06 46.85971 82.88857 36006 ft 454 kts 288°
2026-05-04 02:06 46.87458 82.79960 36005 ft 451 kts 278°
2026-05-04 02:07 46.88416 82.70906 36007 ft 451 kts 277°
2026-05-04 02:07 46.89300 82.61821 36010 ft 451 kts 277°
2026-05-04 02:08 46.90194 82.52730 36011 ft 451 kts 277°
2026-05-04 02:08 46.91098 82.43647 36011 ft 451 kts 277°
2026-05-04 02:09 46.92002 82.34556 36012 ft 452 kts 277°
2026-05-04 02:09 46.92899 82.25456 36009 ft 452 kts 277°
2026-05-04 02:10 46.93788 82.16350 36008 ft 452 kts 277°
2026-05-04 02:10 46.94670 82.07230 36009 ft 452 kts 277°
2026-05-04 02:11 46.95539 81.98172 36006 ft 452 kts 277°
2026-05-04 02:11 46.96406 81.89055 36005 ft 453 kts 277°
2026-05-04 02:12 46.97261 81.79909 36006 ft 453 kts 276°
2026-05-04 02:12 46.98105 81.70773 36005 ft 453 kts 276°
2026-05-04 02:13 46.98939 81.61679 36006 ft 453 kts 276°
2026-05-04 02:13 46.99772 81.52526 36006 ft 453 kts 276°
2026-05-04 02:14 47.00599 81.43356 36010 ft 453 kts 276°
2026-05-04 02:14 47.01418 81.34197 36008 ft 453 kts 276°
2026-05-04 02:15 47.02228 81.25042 36018 ft 453 kts 276°
2026-05-04 02:15 47.03032 81.15883 36018 ft 453 kts 276°
2026-05-04 02:16 47.03828 81.06718 36023 ft 453 kts 276°
2026-05-04 02:16 47.04613 80.97607 36024 ft 453 kts 276°
2026-05-04 02:17 47.05395 80.88439 36029 ft 453 kts 276°
2026-05-04 02:17 47.06168 80.79276 36028 ft 452 kts 276°
2026-05-04 02:18 47.06934 80.70113 36031 ft 452 kts 276°
2026-05-04 02:18 47.07694 80.60937 36036 ft 453 kts 276°
2026-05-04 02:19 47.08442 80.51824 36041 ft 452 kts 276°
2026-05-04 02:19 47.09187 80.42653 36051 ft 453 kts 276°
2026-05-04 02:20 47.09925 80.33464 36060 ft 453 kts 276°
2026-05-04 02:20 47.10655 80.24289 36070 ft 453 kts 276°
2026-05-04 02:21 47.11378 80.15099 36078 ft 453 kts 276°
2026-05-04 02:21 47.12094 80.05913 36084 ft 453 kts 276°
2026-05-04 02:22 47.12798 79.96783 36088 ft 453 kts 276°
2026-05-04 02:22 47.13500 79.87588 36097 ft 453 kts 275°
2026-05-04 02:23 47.14207 79.78405 36102 ft 453 kts 276°
2026-05-04 02:23 47.14918 79.69210 36109 ft 452 kts 276°
2026-05-04 02:24 47.15620 79.60018 36112 ft 452 kts 276°
2026-05-04 02:24 47.16314 79.50825 36119 ft 452 kts 275°
2026-05-04 02:25 47.16999 79.41638 36125 ft 452 kts 275°
2026-05-04 02:25 47.17677 79.32448 36125 ft 452 kts 275°
2026-05-04 02:26 47.18348 79.23254 36129 ft 452 kts 275°
2026-05-04 02:26 47.19007 79.14124 36132 ft 452 kts 275°
2026-05-04 02:27 47.19651 79.04929 36132 ft 452 kts 275°
2026-05-04 02:27 47.20275 78.95731 36135 ft 452 kts 275°
2026-05-04 02:28 47.20893 78.86529 36137 ft 452 kts 275°
2026-05-04 02:28 47.21506 78.77332 36142 ft 452 kts 275°
2026-05-04 02:29 47.22113 78.68138 36144 ft 451 kts 275°
2026-05-04 02:29 47.22712 78.58944 36142 ft 451 kts 275°
2026-05-04 02:30 47.23303 78.49755 36144 ft 451 kts 275°
2026-05-04 02:30 47.23886 78.40569 36149 ft 451 kts 275°
2026-05-04 02:31 47.24462 78.31386 36148 ft 450 kts 275°
2026-05-04 02:31 47.25026 78.22268 36154 ft 450 kts 275°
2026-05-04 02:32 47.25588 78.13075 36153 ft 450 kts 275°
2026-05-04 02:32 47.26141 78.03900 36155 ft 450 kts 274°
2026-05-04 02:33 47.26686 77.94735 36161 ft 450 kts 274°
2026-05-04 02:33 47.27225 77.85551 36154 ft 449 kts 274°
2026-05-04 02:34 47.27755 77.76384 36148 ft 449 kts 274°
2026-05-04 02:34 47.28278 77.67209 36165 ft 449 kts 274°
2026-05-04 02:35 47.28793 77.58044 36170 ft 449 kts 274°
2026-05-04 02:35 47.29301 77.48871 36160 ft 449 kts 274°
2026-05-04 02:36 47.29799 77.39761 36170 ft 449 kts 274°
2026-05-04 02:36 47.30292 77.30587 36175 ft 449 kts 274°
2026-05-04 02:37 47.30778 77.21419 36165 ft 449 kts 274°
2026-05-04 02:37 47.31256 77.12264 36167 ft 448 kts 274°
2026-05-04 02:38 47.31742 77.03094 36166 ft 449 kts 275°
2026-05-04 02:38 47.32448 76.95513 36169 ft 449 kts 278°
2026-05-04 02:39 47.33484 76.86437 36166 ft 449 kts 278°
2026-05-04 02:39 47.34472 76.77346 36179 ft 449 kts 277°
2026-05-04 02:40 47.35399 76.68230 36176 ft 449 kts 277°
2026-05-04 02:40 47.36298 76.59115 36182 ft 449 kts 277°
2026-05-04 02:41 47.37191 76.49985 36182 ft 449 kts 277°
2026-05-04 02:41 47.38079 76.40853 36183 ft 450 kts 277°
2026-05-04 02:42 47.38962 76.31710 36193 ft 450 kts 277°
2026-05-04 02:42 47.39840 76.22552 36192 ft 450 kts 277°
2026-05-04 02:43 47.40709 76.13391 36186 ft 451 kts 276°
2026-05-04 02:43 47.41572 76.04225 36187 ft 451 kts 276°
2026-05-04 02:44 47.42424 75.95097 36189 ft 451 kts 276°
2026-05-04 02:44 47.43274 75.85897 36190 ft 452 kts 276°
2026-05-04 02:45 47.44118 75.76688 36207 ft 452 kts 276°
2026-05-04 02:45 47.44955 75.67475 36199 ft 453 kts 276°
2026-05-04 02:46 47.45785 75.58244 36202 ft 453 kts 276°
2026-05-04 02:46 47.46609 75.49002 36204 ft 454 kts 276°
2026-05-04 02:47 47.47420 75.39813 36205 ft 454 kts 276°
2026-05-04 02:47 47.48230 75.30552 36208 ft 454 kts 276°
2026-05-04 02:48 47.49034 75.21273 36206 ft 455 kts 276°
2026-05-04 02:48 47.49830 75.11986 36212 ft 455 kts 276°
2026-05-04 02:49 47.50621 75.02679 36210 ft 456 kts 276°
2026-05-04 02:49 47.51404 74.93376 36210 ft 456 kts 276°
2026-05-04 02:50 47.52180 74.84057 36218 ft 456 kts 276°
2026-05-04 02:50 47.52949 74.74731 36219 ft 457 kts 276°
2026-05-04 02:51 47.53713 74.65373 36215 ft 457 kts 276°
2026-05-04 02:51 47.54464 74.56074 36215 ft 457 kts 276°
2026-05-04 02:52 47.55212 74.46715 36215 ft 457 kts 276°
2026-05-04 02:52 47.55952 74.37365 36217 ft 458 kts 276°
2026-05-04 02:53 47.56686 74.27987 36210 ft 458 kts 276°
2026-05-04 02:53 47.57413 74.18608 36207 ft 458 kts 276°
2026-05-04 02:54 47.58128 74.09271 36207 ft 459 kts 276°
2026-05-04 02:54 47.58840 73.99872 36209 ft 459 kts 276°
2026-05-04 02:55 47.59894 73.85771 36214 ft 459 kts 276°
2026-05-04 02:56 47.60587 73.76369 36204 ft 459 kts 276°
2026-05-04 02:56 47.61269 73.67004 36201 ft 460 kts 276°
2026-05-04 02:57 47.61947 73.57586 36201 ft 460 kts 276°
2026-05-04 02:57 47.62619 73.48146 36207 ft 460 kts 276°
2026-05-04 02:58 47.63283 73.38714 36200 ft 460 kts 276°
2026-05-04 02:58 47.63939 73.29275 36202 ft 460 kts 276°
2026-05-04 02:59 47.64587 73.19833 36207 ft 460 kts 275°
2026-05-04 02:59 47.65228 73.10388 36198 ft 460 kts 275°
2026-05-04 03:00 47.65858 73.00981 36209 ft 460 kts 275°
2026-05-04 03:00 47.66482 72.91541 36198 ft 460 kts 275°
2026-05-04 03:01 47.67100 72.82086 36195 ft 460 kts 275°
2026-05-04 03:01 47.67710 72.72622 36199 ft 460 kts 275°
2026-05-04 03:02 47.68312 72.63165 36201 ft 460 kts 275°
2026-05-04 03:02 47.68902 72.53774 36194 ft 460 kts 275°
2026-05-04 03:03 47.69488 72.44320 36194 ft 460 kts 275°
2026-05-04 03:03 47.70066 72.34871 36187 ft 460 kts 275°
2026-05-04 03:04 47.70636 72.25416 36194 ft 460 kts 275°
2026-05-04 03:04 47.71199 72.15960 36189 ft 460 kts 275°
2026-05-04 03:05 47.71754 72.06494 36198 ft 460 kts 275°
2026-05-04 03:05 47.72301 71.97028 36191 ft 460 kts 275°
2026-05-04 03:06 47.72840 71.87573 36195 ft 460 kts 275°
2026-05-04 03:06 47.73357 71.78150 36197 ft 460 kts 274°
2026-05-04 03:07 47.73753 71.68658 36184 ft 460 kts 273°
2026-05-04 03:07 47.74116 71.59140 36196 ft 461 kts 273°
2026-05-04 03:08 47.74487 71.49628 36190 ft 461 kts 273°
2026-05-04 03:08 47.74863 71.40117 36198 ft 461 kts 273°
2026-05-04 03:09 47.75232 71.30648 36189 ft 462 kts 273°
2026-05-04 03:09 47.75595 71.21117 36187 ft 462 kts 273°
2026-05-04 03:10 47.75950 71.11577 36194 ft 462 kts 273°
2026-05-04 03:10 47.76297 71.02029 36194 ft 463 kts 273°
2026-05-04 03:11 47.76636 70.92465 36191 ft 463 kts 273°
2026-05-04 03:11 47.76968 70.82901 36199 ft 464 kts 273°
2026-05-04 03:12 47.77292 70.73306 36198 ft 464 kts 273°
2026-05-04 03:12 47.77610 70.63698 36187 ft 465 kts 273°
2026-05-04 03:13 47.77923 70.54098 36190 ft 465 kts 273°
2026-05-04 03:13 47.78217 70.44544 36186 ft 466 kts 273°
2026-05-04 03:14 47.78506 70.34909 36194 ft 466 kts 273°
2026-05-04 03:14 47.78789 70.25265 36186 ft 467 kts 273°
2026-05-04 03:15 47.79065 70.15615 36184 ft 467 kts 273°
2026-05-04 03:15 47.79334 70.05959 36186 ft 468 kts 273°
2026-05-04 03:16 47.79595 69.96270 36194 ft 468 kts 273°
2026-05-04 03:16 47.79847 69.86603 36198 ft 468 kts 273°
2026-05-04 03:17 47.80090 69.76999 36194 ft 468 kts 273°
2026-05-04 03:17 47.80325 69.67322 36199 ft 468 kts 273°
2026-05-04 03:18 47.80553 69.57655 36200 ft 467 kts 273°
2026-05-04 03:18 47.80773 69.47984 36196 ft 467 kts 273°
2026-05-04 03:19 47.80984 69.38331 36198 ft 467 kts 273°
2026-05-04 03:19 47.81187 69.28667 36197 ft 467 kts 273°
2026-05-04 03:20 47.81380 69.19075 36200 ft 467 kts 273°
2026-05-04 03:20 47.81567 69.09430 36200 ft 466 kts 273°
2026-05-04 03:21 47.81746 68.99791 36199 ft 466 kts 273°
2026-05-04 03:21 47.81916 68.90150 36196 ft 466 kts 273°
2026-05-04 03:22 47.81881 68.80492 36195 ft 467 kts 266°
2026-05-04 03:22 47.81130 68.70876 36196 ft 468 kts 265°
2026-05-04 03:23 47.80254 68.61282 36195 ft 468 kts 264°
2026-05-04 03:23 47.79358 68.51710 36194 ft 467 kts 264°
2026-05-04 03:24 47.78465 68.42135 36195 ft 467 kts 264°
2026-05-04 03:24 47.77572 68.32577 36196 ft 467 kts 264°
2026-05-04 03:25 47.76672 68.23012 36193 ft 466 kts 264°
2026-05-04 03:25 47.75919 68.15077 36191 ft 466 kts 264°
2026-05-04 03:26 47.74858 68.03991 36187 ft 466 kts 264°
2026-05-04 03:26 47.74086 67.96007 36186 ft 466 kts 264°
2026-05-04 03:27 47.73163 67.86542 36184 ft 465 kts 264°
2026-05-04 03:27 47.72228 67.77022 36185 ft 465 kts 264°
2026-05-04 03:28 47.71069 67.67546 36185 ft 467 kts 260°
2026-05-04 03:28 47.69575 67.58167 36184 ft 467 kts 259°
2026-05-04 03:29 47.68093 67.48847 36184 ft 467 kts 259°
2026-05-04 03:29 47.66654 67.39461 36189 ft 466 kts 259°
2026-05-04 03:30 47.65234 67.30079 36186 ft 466 kts 259°
2026-05-04 03:30 47.63809 67.20701 36189 ft 466 kts 259°
2026-05-04 03:31 47.62374 67.11328 36188 ft 466 kts 259°
2026-05-04 03:31 47.60929 67.01954 36190 ft 466 kts 259°
2026-05-04 03:32 47.59476 66.92590 36190 ft 466 kts 259°
2026-05-04 03:32 47.58024 66.83284 36190 ft 466 kts 259°
2026-05-04 03:33 47.57777 66.81707 36188 ft 466 kts 259°